• In Österreich
  • Länderverzeichnis
  • Für 7 Tage
  • Wassertemperatur
  • Satellitenkarten
  • Wetterkarte
  • News
  • Widgets
  • user-avatar
    Anmelden

    Stündliche Wetter Osipovo

    Heute, 23 Juli, Montag

    Zeit Temperatur Niederschläge Wind Luftdruck Luftfeuchtigkeit
    00:00 +18°C° 0 mm 2 m/S 747 mmHg 97%
    01:00 +17°C° 0 mm 2 m/S 747 mmHg 97%
    02:00 +17°C° 0 mm 2 m/S 747 mmHg 98%
    03:00 +17°C° 0 mm 2 m/S 747 mmHg 97%
    04:00 +18°C° 0 mm 3 m/S 747 mmHg 96%
    05:00 +18°C° 0 mm 3 m/S 747 mmHg 95%
    06:00 +18°C° 0 mm 3 m/S 748 mmHg 92%
    07:00 +19°C° 0 mm 3 m/S 748 mmHg 88%
    08:00 +20°C° 0 mm 3 m/S 748 mmHg 84%
    09:00 +21°C° 0 mm 4 m/S 748 mmHg 80%
    10:00 +22°C° 0 mm 4 m/S 748 mmHg 76%
    11:00 +22°C° 0 mm 4 m/S 748 mmHg 72%
    12:00 +23°C° 0,1 mm 4 m/S 748 mmHg 69%
    13:00 +25°C° 0,1 mm 4 m/S 748 mmHg 66%
    14:00 +25°C° 0,1 mm 4 m/S 748 mmHg 64%
    15:00 +25°C° 0,1 mm 4 m/S 748 mmHg 66%
    16:00 +23°C° 0,1 mm 4 m/S 748 mmHg 68%
    17:00 +24°C° 0,1 mm 3 m/S 748 mmHg 70%
    18:00 +22°C° 0 mm 3 m/S 748 mmHg 76%
    19:00 +20°C° 0 mm 3 m/S 748 mmHg 82%
    20:00 +19°C° 0 mm 2 m/S 748 mmHg 87%
    21:00 +18°C° 0 mm 2 m/S 749 mmHg 89%
    22:00 +18°C° 0 mm 2 m/S 749 mmHg 91%
    23:00 +17°C° 0 mm 2 m/S 749 mmHg 93%

    Morgen, 24 Juli, Dienstag

    Zeit Temperatur Niederschläge Wind Luftdruck Luftfeuchtigkeit
    00:00 +17°C° 0 mm 2 m/S 749 mmHg 93%
    01:00 +17°C° 0 mm 3 m/S 748 mmHg 92%
    02:00 +17°C° 0 mm 3 m/S 748 mmHg 92%
    03:00 +17°C° 0 mm 3 m/S 748 mmHg 92%
    04:00 +17°C° 0 mm 3 m/S 749 mmHg 92%
    05:00 +17°C° 0 mm 3 m/S 749 mmHg 92%
    06:00 +17°C° 0 mm 3 m/S 749 mmHg 90%
    07:00 +18°C° 0 mm 3 m/S 749 mmHg 88%
    08:00 +19°C° 0 mm 3 m/S 749 mmHg 86%
    09:00 +20°C° 0 mm 3 m/S 749 mmHg 82%
    10:00 +21°C° 0 mm 3 m/S 749 mmHg 79%
    11:00 +22°C° 0 mm 3 m/S 750 mmHg 75%
    12:00 +22°C° 0 mm 3 m/S 749 mmHg 77%
    13:00 +21°C° 0 mm 3 m/S 749 mmHg 78%
    14:00 +21°C° 0 mm 3 m/S 749 mmHg 79%
    15:00 +22°C° 0 mm 3 m/S 749 mmHg 80%
    16:00 +22°C° 0 mm 3 m/S 749 mmHg 80%
    17:00 +22°C° 0 mm 3 m/S 749 mmHg 81%
    18:00 +21°C° 0 mm 2 m/S 749 mmHg 85%
    19:00 +21°C° 0 mm 2 m/S 750 mmHg 89%
    20:00 +20°C° 0 mm 2 m/S 750 mmHg 93%
    21:00 +20°C° 0 mm 2 m/S 750 mmHg 94%
    22:00 +19°C° 0 mm 2 m/S 750 mmHg 96%
    23:00 +19°C° 0 mm 2 m/S 750 mmHg 97%

    übermorgen, 25 Juli, Mittwoch

    Zeit Temperatur Niederschläge Wind Luftdruck Luftfeuchtigkeit
    00:00 +19°C° 0,2 mm 2 m/S 750 mmHg 98%
    01:00 +19°C° 0,2 mm 2 m/S 750 mmHg 98%
    02:00 +18°C° 0,2 mm 2 m/S 750 mmHg 98%
    03:00 +19°C° 0,1 mm 2 m/S 750 mmHg 98%
    04:00 +19°C° 0,1 mm 2 m/S 750 mmHg 98%
    05:00 +19°C° 0,1 mm 2 m/S 751 mmHg 97%
    06:00 +20°C° 0,3 mm 2 m/S 751 mmHg 95%
    07:00 +21°C° 0,3 mm 2 m/S 751 mmHg 93%
    08:00 +23°C° 0,3 mm 2 m/S 751 mmHg 91%
    09:00 +23°C° 0,9 mm 2 m/S 752 mmHg 89%
    10:00 +24°C° 0,9 mm 2 m/S 752 mmHg 87%
    11:00 +24°C° 0,9 mm 2 m/S 752 mmHg 85%
    12:00 +25°C° 0,2 mm 2 m/S 752 mmHg 78%
    13:00 +27°C° 0,2 mm 2 m/S 752 mmHg 70%
    14:00 +28°C° 0,2 mm 2 m/S 752 mmHg 63%
    15:00 +28°C° 0,1 mm 2 m/S 752 mmHg 64%
    16:00 +27°C° 0,1 mm 2 m/S 752 mmHg 65%
    17:00 +27°C° 0,1 mm 2 m/S 752 mmHg 66%
    18:00 +26°C° 0 mm 2 m/S 752 mmHg 70%
    19:00 +24°C° 0 mm 3 m/S 752 mmHg 74%
    20:00 +21°C° 0 mm 3 m/S 752 mmHg 78%
    21:00 +21°C° 0 mm 3 m/S 752 mmHg 77%
    22:00 +20°C° 0 mm 3 m/S 752 mmHg 77%
    23:00 +19°C° 0 mm 3 m/S 752 mmHg 76%

    26 Juli, Donnerstag

    Zeit Temperatur Niederschläge Wind Luftdruck Luftfeuchtigkeit
    00:00 +19°C° 0 mm 3 m/S 752 mmHg 76%
    01:00 +18°C° 0 mm 3 m/S 752 mmHg 76%
    02:00 +18°C° 0 mm 3 m/S 752 mmHg 76%
    03:00 +18°C° 0 mm 3 m/S 752 mmHg 77%
    04:00 +18°C° 0 mm 3 m/S 752 mmHg 78%
    05:00 +18°C° 0 mm 3 m/S 752 mmHg 79%
    06:00 +20°C° 0 mm 3 m/S 752 mmHg 75%
    07:00 +22°C° 0 mm 3 m/S 752 mmHg 71%
    08:00 +25°C° 0 mm 4 m/S 753 mmHg 67%
    09:00 +26°C° 0 mm 4 m/S 753 mmHg 61%
    10:00 +28°C° 0 mm 4 m/S 753 mmHg 56%
    11:00 +30°C° 0 mm 4 m/S 753 mmHg 50%
    12:00 +32°C° 0 mm 4 m/S 753 mmHg 47%
    13:00 +32°C° 0 mm 4 m/S 753 mmHg 45%
    14:00 +33°C° 0 mm 4 m/S 753 mmHg 42%
    15:00 +33°C° 0 mm 4 m/S 753 mmHg 46%
    16:00 +31°C° 0 mm 3 m/S 753 mmHg 49%
    17:00 +31°C° 0 mm 3 m/S 753 mmHg 53%
    18:00 +29°C° 0 mm 3 m/S 753 mmHg 57%
    19:00 +27°C° 0 mm 3 m/S 753 mmHg 61%
    20:00 +24°C° 0 mm 3 m/S 753 mmHg 65%
    21:00 +24°C° 0,1 mm 2 m/S 753 mmHg 68%
    22:00 +23°C° 0,1 mm 2 m/S 753 mmHg 71%
    23:00 +21°C° 0,1 mm 2 m/S 754 mmHg 73%

    27 Juli, Freitag

    Zeit Temperatur Niederschläge Wind Luftdruck Luftfeuchtigkeit
    00:00 +21°C° 0,1 mm 2 m/S 754 mmHg 78%
    01:00 +20°C° 0,1 mm 2 m/S 754 mmHg 83%
    02:00 +20°C° 0,1 mm 2 m/S 754 mmHg 87%
    03:00 +20°C° 0 mm 2 m/S 754 mmHg 88%
    04:00 +20°C° 0 mm 2 m/S 754 mmHg 88%
    05:00 +20°C° 0 mm 2 m/S 755 mmHg 88%
    06:00 +22°C° 0 mm 3 m/S 755 mmHg 81%
    07:00 +25°C° 0 mm 3 m/S 755 mmHg 74%
    08:00 +27°C° 0 mm 4 m/S 755 mmHg 67%
    09:00 +28°C° 0 mm 4 m/S 755 mmHg 63%
    10:00 +29°C° 0 mm 4 m/S 755 mmHg 58%
    11:00 +29°C° 0 mm 4 m/S 756 mmHg 54%
    12:00 +29°C° 0 mm 4 m/S 755 mmHg 56%
    13:00 +29°C° 0 mm 4 m/S 755 mmHg 57%
    14:00 +29°C° 0 mm 4 m/S 755 mmHg 59%
    15:00 +29°C° 0,1 mm 3 m/S 755 mmHg 59%
    16:00 +29°C° 0,1 mm 3 m/S 755 mmHg 60%
    17:00 +30°C° 0,1 mm 2 m/S 755 mmHg 61%
    18:00 +28°C° 0,2 mm 2 m/S 755 mmHg 67%
    19:00 +26°C° 0,2 mm 2 m/S 755 mmHg 73%
    20:00 +25°C° 0,2 mm 3 m/S 756 mmHg 79%
    21:00 +24°C° 0,4 mm 2 m/S 756 mmHg 82%
    22:00 +23°C° 0,4 mm 2 m/S 756 mmHg 84%
    23:00 +21°C° 0,4 mm 2 m/S 756 mmHg 86%

    28 Juli, Samstag

    Zeit Temperatur Niederschläge Wind Luftdruck Luftfeuchtigkeit
    00:00 +21°C° 0,4 mm 2 m/S 756 mmHg 87%
    01:00 +21°C° 0,4 mm 1 m/S 756 mmHg 88%
    02:00 +21°C° 0,4 mm 1 m/S 756 mmHg 89%
    03:00 +21°C° 0 mm 1 m/S 756 mmHg 89%
    04:00 +21°C° 0 mm 1 m/S 756 mmHg 88%
    05:00 +21°C° 0 mm 1 m/S 756 mmHg 88%
    06:00 +23°C° 0 mm 1 m/S 757 mmHg 82%
    07:00 +25°C° 0 mm 2 m/S 757 mmHg 76%
    08:00 +26°C° 0 mm 2 m/S 757 mmHg 70%
    09:00 +28°C° 0,1 mm 2 m/S 757 mmHg 62%
    10:00 +29°C° 0,1 mm 2 m/S 757 mmHg 55%
    11:00 +30°C° 0,1 mm 3 m/S 757 mmHg 47%
    12:00 +31°C° 0 mm 3 m/S 757 mmHg 47%
    13:00 +31°C° 0 mm 2 m/S 757 mmHg 47%
    14:00 +31°C° 0 mm 2 m/S 756 mmHg 47%
    15:00 +30°C° 0 mm 2 m/S 756 mmHg 51%
    16:00 +29°C° 0 mm 2 m/S 756 mmHg 55%
    17:00 +29°C° 0 mm 2 m/S 756 mmHg 59%
    18:00 +27°C° 0 mm 2 m/S 756 mmHg 64%
    19:00 +26°C° 0 mm 2 m/S 756 mmHg 68%
    20:00 +24°C° 0 mm 2 m/S 756 mmHg 72%
    21:00 +24°C° 0 mm 2 m/S 757 mmHg 75%
    22:00 +23°C° 0 mm 2 m/S 757 mmHg 77%
    23:00 +23°C° 0 mm 2 m/S 757 mmHg 79%
    Mehr zeigen